FW6665 Weather Reports


Display with metric or nautical units.
time (UTC)temp
F
wind
direction
speed
MPH
gust
MPH
rain 1hr
in
rain 24hr
in
rain mn
in
humidity
%
barometer
mb
20260901075205 59 237 1.0 4.0 0.00 0.00 0.00 78 1018.4
20260901074707 59 237 1.0 4.0 0.00 0.00 0.00 78 1018.3
20260901073705 58 237 1.0 3.0 0.00 0.00 0.00 78 1018.2
20260901072705 58 237 1.0 4.0 0.00 0.00 0.00 79 1018.3
20260901072205 58 237 1.0 4.0 0.00 0.00 0.00 78 1018.2
20260901071705 58 237 1.0 2.0 0.00 0.00 0.00 78 1018.2
20260901070705 57 238 0.0 2.0 0.00 0.00 0.00 77 1018.2
20260901070205 57 238 0.0 2.0 0.00 0.00 0.00 77 1018.2
20260901064704 56 238 0.0 1.0 0.00 0.00 0.00 77 1018.0
20260901064203 56 238 0.0 2.0 0.00 0.00 0.00 77 1018.0
20260901063705 56 238 0.0 2.0 0.00 0.00 0.00 77 1018.0
20260901063205 56 238 0.0 2.0 0.00 0.00 0.00 77 1017.9
20260901062705 56 238 0.0 1.0 0.00 0.00 0.00 76 1017.9
20260901062204 56 238 0.0 1.0 0.00 0.00 0.00 76 1017.9
20260901061704 56 238 0.0 1.0 0.00 0.00 0.00 76 1017.9
20260901060706 55 238 0.0 1.0 0.00 0.00 0.00 76 1017.9
20260901060205 55 238 0.0 1.0 0.00 0.00 0.00 76 1017.8
20260901055705 55 238 0.0 1.0 0.00 0.00 0.00 76 1017.7
20260901055204 55 238 0.0 1.0 0.00 0.00 0.00 76 1017.7
20260901054705 55 238 0.0 1.0 0.00 0.00 0.00 76 1017.7
20260901054204 55 238 0.0 1.0 0.00 0.00 0.00 76 1017.7
20260901053704 55 238 0.0 1.0 0.00 0.00 0.00 76 1017.6
20260901053225 55 238 0.0 1.0 0.00 0.00 0.00 76 1017.6
20260901051704 55 238 0.0 1.0 0.00 0.00 0.00 77 1017.6
20260901051204 55 238 0.0 1.0 0.00 0.00 0.00 77 1017.5
20260901050704 55 238 0.0 1.0 0.00 0.00 0.00 77 1017.4
20260901050204 55 238 0.0 1.0 0.00 0.00 0.00 77 1017.4
20260901044705 55 238 0.0 1.0 0.00 0.00 0.00 78 1017.3
20260901044205 55 238 0.0 1.0 0.00 0.00 0.00 78 1017.3
20260901043705 55 238 0.0 1.0 0.00 0.00 0.00 78 1017.4
20260901043204 55 238 0.0 1.0 0.00 0.00 0.00 78 1017.4
20260901042704 55 238 0.0 0.0 0.00 0.00 0.00 78 1017.4
20260901042204 55 238 0.0 0.0 0.00 0.00 0.00 78 1017.4
20260901041705 55 238 0.0 1.0 0.00 0.00 0.00 78 1017.2
20260901041205 55 238 0.0 1.0 0.00 0.00 0.00 78 1017.1
20260901040705 56 238 0.0 1.0 0.00 0.00 0.00 78 1017.1
20260901040203 56 238 0.0 1.0 0.00 0.00 0.00 78 1017.1
20260901035206 56 238 0.0 1.0 0.00 0.00 0.00 78 1017.1
20260901034705 56 238 0.0 1.0 0.00 0.00 0.00 79 1017.0
20260901033705 56 238 0.0 2.0 0.00 0.00 0.00 78 1017.1
20260901033204 56 238 0.0 2.0 0.00 0.00 0.00 78 1017.0
20260901032704 56 238 0.0 2.0 0.00 0.00 0.00 78 1017.0
20260901032203 56 238 0.0 1.0 0.00 0.00 0.00 78 1017.0
20260901031705 56 238 0.0 1.0 0.00 0.00 0.00 78 1017.0
20260901031204 57 238 0.0 1.0 0.00 0.00 0.00 78 1017.0
20260901030704 57 238 0.0 1.0 0.00 0.00 0.00 78 1017.0
20260901030204 57 238 0.0 1.0 0.00 0.00 0.00 78 1017.0
20260901025205 57 238 0.0 1.0 0.00 0.00 0.00 78 1017.0
20260901024705 57 238 0.0 0.0 0.00 0.00 0.00 78 1016.9
20260901024203 58 238 0.0 0.0 0.00 0.00 0.00 77 1017.0
20260901023705 58 238 0.0 1.0 0.00 0.00 0.00 77 1017.0
20260901023204 58 238 0.0 1.0 0.00 0.00 0.00 77 1016.9
20260901022708 58 238 0.0 1.0 0.00 0.00 0.00 77 1016.9
20260901022204 58 238 0.0 1.0 0.00 0.00 0.00 76 1016.9
20260901021704 58 238 0.0 1.0 0.00 0.00 0.00 76 1017.0
20260901021204 58 238 0.0 1.0 0.00 0.00 0.00 76 1017.0
20260901020704 59 238 0.0 1.0 0.00 0.00 0.00 76 1016.9
20260901015704 59 238 0.0 1.0 0.00 0.00 0.00 75 1016.9
20260901015204 59 238 0.0 1.0 0.00 0.00 0.00 75 1016.8
20260901014704 60 238 0.0 2.0 0.00 0.00 0.00 74 1016.9
20260901013706 60 238 0.0 4.0 0.00 0.00 0.00 74 1016.7
20260901013205 60 238 1.0 4.0 0.00 0.00 0.00 74 1016.8
20260901012704 60 238 1.0 4.0 0.00 0.00 0.00 74 1016.7
20260901011204 60 238 1.0 2.0 0.00 0.00 0.00 72 1016.8
20260901010704 61 238 0.0 5.0 0.00 0.00 0.00 72 1016.6
20260901010204 61 238 0.0 5.0 0.00 0.00 0.00 71 1016.6
20260901005704 61 238 1.0 5.0 0.00 0.00 0.00 71 1016.7
20260901005204 61 240 2.0 9.0 0.00 0.00 0.00 71 1016.6
20260901003704 62 241 2.0 9.0 0.00 0.00 0.00 70 1016.6
20260901002706 62 274 2.0 7.0 0.00 0.00 0.00 70 1016.6
20260901002204 62 243 3.0 5.0 0.00 0.00 0.00 70 1016.6
20260901001709 62 231 2.0 5.0 0.00 0.00 0.00 70 1016.5
20260901000704 62 241 2.0 5.0 0.00 0.00 0.00 69 1016.5
20260901000204 63 248 2.0 5.0 0.00 0.00 0.00 70 1016.4
20260831235704 63 238 1.0 5.0 0.00 0.00 0.00 69 1016.4
20260831235205 63 238 1.0 5.0 0.00 0.00 0.00 69 1016.4
20260831234704 63 237 2.0 5.0 0.00 0.00 0.00 69 1016.4
20260831234204 63 241 2.0 5.0 0.00 0.00 0.00 69 1016.3
20260831233704 63 241 1.0 5.0 0.00 0.00 0.00 69 1016.3
20260831233204 63 241 2.0 7.0 0.00 0.00 0.00 69 1016.2
20260831232205 63 241 2.0 4.0 0.00 0.00 0.00 69 1016.2
20260831231706 63 244 1.0 4.0 0.00 0.00 0.00 69 1016.2
20260831231203 63 245 2.0 4.0 0.00 0.00 0.00 68 1016.2
20260831230705 63 245 2.0 4.0 0.00 0.00 0.00 68 1016.1
20260831230204 63 248 1.0 6.0 0.00 0.00 0.00 68 1016.1
20260831225704 64 250 0.0 6.0 0.00 0.00 0.00 67 1016.0
20260831225204 64 250 0.0 6.0 0.00 0.00 0.00 67 1016.1
20260831224704 64 250 0.0 6.0 0.00 0.00 0.00 67 1016.2
20260831224204 64 250 3.0 6.0 0.00 0.00 0.00 66 1016.2
20260831223704 64 254 2.0 6.0 0.00 0.00 0.00 66 1016.1
20260831223205 64 255 1.0 7.0 0.00 0.00 0.00 66 1016.1
20260831222706 64 250 2.0 7.0 0.00 0.00 0.00 66 1016.0
20260831221704 64 237 2.0 7.0 0.00 0.00 0.00 66 1016.0
20260831221204 64 255 3.0 5.0 0.00 0.00 0.00 67 1016.0
20260831220724 64 234 3.0 5.0 0.00 0.00 0.00 67 1016.0
20260831220204 65 248 2.0 5.0 0.00 0.00 0.00 66 1015.9
20260831215705 65 223 2.0 5.0 0.00 0.00 0.00 66 1015.9
20260831215204 65 219 2.0 7.0 0.00 0.00 0.00 66 1015.9
20260831214704 65 203 2.0 7.0 0.00 0.00 0.00 65 1015.9
20260831214204 65 234 2.0 11.0 0.00 0.00 0.00 65 1015.8
20260831213704 65 240 3.0 11.0 0.00 0.00 0.00 65 1015.7
20260831212205 65 250 5.0 7.0 0.00 0.00 0.00 65 1015.7
20260831211205 65 241 2.0 4.0 0.00 0.00 0.00 67 1015.6
20260831210704 65 240 2.0 4.0 0.00 0.00 0.00 67 1015.6
20260831210205 66 241 1.0 5.0 0.00 0.02 0.00 67 1015.5
20260831205704 66 240 1.0 5.0 0.00 0.04 0.00 67 1015.3
20260831205204 66 240 1.0 7.0 0.00 0.04 0.00 66 1015.3
20260831204705 66 240 1.0 7.0 0.00 0.04 0.00 66 1015.2
20260831204204 66 237 2.0 9.0 0.00 0.04 0.00 65 1015.1
20260831203704 66 259 2.0 9.0 0.00 0.04 0.00 65 1015.0
20260831202706 67 233 3.0 6.0 0.00 0.04 0.00 65 1014.9
20260831202204 67 250 3.0 6.0 0.00 0.04 0.00 65 1014.8
20260831201704 67 233 2.0 6.0 0.00 0.04 0.00 65 1014.7
20260831201204 67 228 3.0 6.0 0.00 0.04 0.00 64 1014.7
20260831200706 67 241 2.0 6.0 0.00 0.04 0.00 64 1014.7
20260831200204 67 235 3.0 9.0 0.00 0.04 0.00 64 1014.5
20260831195703 67 213 2.0 9.0 0.00 0.04 0.00 64 1014.5
20260831195204 68 235 4.0 9.0 0.00 0.04 0.00 64 1014.5
20260831194704 68 237 2.0 9.0 0.00 0.04 0.00 64 1014.4
20260831194205 68 237 3.0 11.0 0.00 0.04 0.00 63 1014.2
20260831193709 68 251 4.0 11.0 0.00 0.04 0.00 63 1014.3
20260831192704 69 228 4.0 12.0 0.00 0.04 0.00 63 1014.2
20260831191704 69 259 4.0 10.0 0.00 0.04 0.00 63 1013.9
20260831191204 69 238 5.0 11.0 0.00 0.04 0.00 63 1013.9
20260831190704 69 285 3.0 11.0 0.00 0.04 0.00 63 1013.9
20260831185703 69 244 4.0 12.0 0.00 0.04 0.00 63 1013.7
20260831185205 69 243 2.0 12.0 0.00 0.04 0.00 63 1013.7
20260831184704 69 233 5.0 12.0 0.00 0.04 0.00 63 1013.7
20260831184204 70 228 5.0 13.0 0.00 0.04 0.00 63 1013.6
20260831183704 70 235 4.0 13.0 0.00 0.04 0.00 62 1013.5
20260831183204 70 231 5.0 13.0 0.00 0.04 0.00 62 1013.5
20260831182704 70 230 3.0 13.0 0.00 0.04 0.00 63 1013.4
20260831182204 70 216 4.0 5.0 0.00 0.04 0.00 65 1013.2
20260831181704 70 238 2.0 5.0 0.00 0.04 0.00 65 1013.1
20260831181205 70 238 2.0 5.0 0.00 0.04 0.00 64 1013.1
20260831180705 70 240 2.0 5.0 0.00 0.04 0.00 64 1013.0
20260831180204 70 238 1.0 6.0 0.00 0.04 0.00 64 1012.9
20260831174704 70 241 2.0 5.0 0.00 0.04 0.00 64 1012.7
20260831174203 70 237 1.0 5.0 0.00 0.04 0.00 64 1012.7
20260831173714 70 237 2.0 5.0 0.00 0.04 0.00 64 1012.7
20260831173204 70 237 2.0 4.0 0.00 0.04 0.00 64 1012.6
20260831172704 70 237 2.0 4.0 0.00 0.04 0.00 64 1012.6
20260831172204 70 237 2.0 4.0 0.00 0.04 0.00 64 1012.6
20260831171704 70 237 2.0 6.0 0.00 0.04 0.00 64 1012.5
20260831171228 70 237 1.0 6.0 0.00 0.04 0.00 65 1012.4
20260831170704 70 237 0.0 6.0 0.00 0.04 0.00 65 1012.4
20260831170204 70 247 2.0 5.0 0.00 0.04 0.00 65 1012.3
20260831165203 70 255 2.0 6.0 0.00 0.04 0.00 65 1012.2
20260831164704 70 255 2.0 6.0 0.00 0.04 0.00 65 1012.2
20260831163705 71 268 2.0 6.0 0.00 0.04 0.00 64 1012.1
20260831162705 71 217 2.0 7.0 0.00 0.04 0.00 66 1012.0
20260831162204 70 283 2.0 7.0 0.00 0.04 0.00 67 1012.1
20260831161705 70 254 1.0 7.0 0.00 0.04 0.00 66 1012.0
20260831160705 70 247 3.0 7.0 0.00 0.04 0.00 65 1012.0
20260831160207 70 286 4.0 9.0 0.00 0.04 0.00 65 1012.0
20260831155705 70 255 2.0 9.0 0.00 0.04 0.00 65 1011.9
20260831155204 70 228 1.0 6.0 0.00 0.04 0.00 66 1011.7
20260831154704 70 240 2.0 6.0 0.00 0.04 0.00 67 1011.7
20260831154204 70 233 2.0 6.0 0.00 0.04 0.00 67 1011.6
20260831153205 70 228 2.0 9.0 0.00 0.04 0.00 67 1011.6
20260831152707 70 240 2.0 9.0 0.00 0.04 0.00 67 1011.6
20260831152203 70 285 1.0 9.0 0.00 0.04 0.00 67 1011.5
20260831151704 70 259 1.0 9.0 0.00 0.04 0.00 65 1011.4
20260831151204 71 265 2.0 15.0 0.00 0.04 0.00 64 1011.3
20260831144704 74 214 6.0 16.0 0.00 0.04 0.00 54 1011.1
20260831144205 73 234 4.0 15.0 0.00 0.04 0.00 55 1011.0
20260831142704 72 245 5.0 13.0 0.00 0.04 0.00 57 1010.9
20260831142207 72 286 5.0 12.0 0.00 0.04 0.00 56 1010.8
20260831141704 73 251 4.0 12.0 0.00 0.04 0.00 58 1010.8
20260831141205 73 224 5.0 12.0 0.00 0.04 0.00 56 1010.7
20260831140704 74 188 3.0 12.0 0.00 0.04 0.00 56 1010.7
20260831140204 73 290 3.0 14.0 0.00 0.04 0.00 56 1010.5
20260831135709 73 228 3.0 14.0 0.00 0.04 0.00 58 1010.6
20260831135203 73 207 8.0 12.0 0.00 0.04 0.00 56 1010.7
20260831134704 72 257 6.0 12.0 0.00 0.04 0.00 58 1010.6
20260831134205 72 251 5.0 11.0 0.00 0.04 0.00 60 1010.6
20260831132704 71 244 5.0 13.0 0.00 0.04 0.00 62 1010.4
20260831132208 70 190 4.0 13.0 0.00 0.04 0.00 63 1010.3
20260831131705 70 250 3.0 13.0 0.00 0.04 0.00 62 1010.1
20260831131207 70 275 6.0 12.0 0.00 0.04 0.00 62 1010.2
20260831130707 71 279 5.0 12.0 0.00 0.04 0.00 62 1010.1
20260831125704 71 251 6.0 14.0 0.00 0.04 0.00 60 1009.9
20260831125208 71 252 3.0 14.0 0.00 0.04 0.00 60 1009.8
20260831124705 71 257 3.0 14.0 0.00 0.04 0.00 60 1009.8
20260831124208 71 247 5.0 9.0 0.00 0.04 0.00 61 1009.8
20260831123804 71 251 4.0 9.0 0.00 0.04 0.00 60 1009.7
20260831123204 71 303 3.0 12.0 0.00 0.04 0.00 60 1009.5
20260831122204 71 197 4.0 16.0 0.00 0.04 0.00 61 1009.5
20260831121733 71 233 4.0 16.0 0.00 0.04 0.00 60 1009.5
20260831121203 71 247 3.0 16.0 0.00 0.04 0.00 60 1009.2
20260831120704 71 252 6.0 16.0 0.00 0.04 0.00 59 1009.3
20260831120204 71 212 5.0 14.0 0.00 0.04 0.00 60 1009.2
20260831115706 70 234 4.0 14.0 0.00 0.04 0.00 63 1009.2
20260831115205 69 200 3.0 13.0 0.00 0.04 0.00 63 1009.2
20260831114704 70 204 7.0 13.0 0.00 0.04 0.00 61 1009.1
20260831114204 70 268 4.0 12.0 0.00 0.04 0.00 62 1009.1
20260831113732 69 231 2.0 12.0 0.00 0.04 0.00 64 1008.9
20260831113204 69 247 4.0 13.0 0.00 0.04 0.00 62 1009.0
20260831112203 70 261 6.0 11.0 0.00 0.04 0.00 63 1008.8
20260831111714 69 240 6.0 9.0 0.00 0.04 0.00 64 1008.7
20260831110703 69 248 2.0 10.0 0.00 0.04 0.00 64 1008.7
20260831105204 69 255 4.0 11.0 0.00 0.04 0.00 66 1008.5
20260831104704 68 243 4.0 11.0 0.00 0.04 0.00 68 1008.4
20260831103703 69 252 4.0 11.0 0.00 0.04 0.00 67 1008.2
20260831103204 69 186 4.0 11.0 0.00 0.04 0.00 68 1008.3
20260831102704 68 245 3.0 11.0 0.00 0.04 0.00 70 1008.2
20260831102203 67 185 2.0 11.0 0.00 0.04 0.00 71 1008.1
20260831101704 67 209 2.0 11.0 0.00 0.04 0.00 71 1008.1
20260831101204 67 247 3.0 12.0 0.00 0.04 0.00 71 1008.0
20260831100704 67 193 3.0 12.0 0.00 0.04 0.00 73 1008.0
20260831100204 66 238 3.0 10.0 0.00 0.04 0.00 74 1008.0
20260831095704 65 228 4.0 10.0 0.00 0.04 0.00 74 1007.9
20260831095204 65 241 4.0 13.0 0.00 0.04 0.00 73 1007.9
20260831094204 65 240 2.0 13.0 0.00 0.04 0.00 74 1007.7
20260831093707 65 231 3.0 13.0 0.00 0.04 0.00 74 1007.8
20260831093204 65 245 4.0 14.0 0.00 0.04 0.00 75 1007.6
20260831091706 65 261 4.0 11.0 0.00 0.04 0.00 74 1007.4
20260831091204 65 237 4.0 14.0 0.00 0.04 0.00 74 1007.4
20260831090705 65 230 3.0 14.0 0.00 0.04 0.00 75 1007.1
20260831090204 64 247 4.0 12.0 0.00 0.04 0.00 75 1007.1
20260831085704 64 237 6.0 12.0 0.00 0.04 0.00 75 1007.1
20260831085226 64 259 5.0 12.0 0.00 0.04 0.00 76 1007.0
20260831084230 64 237 4.0 12.0 0.00 0.04 0.00 76 1006.9
20260831083704 64 243 2.0 12.0 0.00 0.04 0.00 76 1006.7
20260831083204 63 235 3.0 9.0 0.00 0.04 0.00 77 1006.7
20260831082703 63 243 3.0 9.0 0.00 0.04 0.00 77 1006.6
20260831082204 62 247 3.0 10.0 0.00 0.04 0.00 77 1006.5
20260831081703 62 252 4.0 10.0 0.00 0.04 0.00 78 1006.5
20260831080704 62 247 4.0 10.0 0.00 0.04 0.00 78 1006.4
20260831080205 62 199 3.0 14.0 0.00 0.04 0.00 78 1006.4
20260831075704 62 230 3.0 14.0 0.00 0.04 0.00 78 1006.3